Location: Vaughan
(31.9146°N, 97.1736°W)
Time: 00:43:17
(UTC+00:00)

Cosmos 2297 Rocket - Pass Details

Date: 10 December 2025
Orbit: 837 x 844 km, 71.0° (Epoch: 19 January)

Event Time Altitude Azimuth Distance (km) Brightness Sun altitude
Rises 01:07:39 0° 327° (NNW) 3,403 5.6 -21.3°
Reaches altitude 10° 01:10:19 10° 318° (NW) 2,465 5.0 -21.8°
Maximum altitude 01:15:15 32° 257° (WSW) 1,417 4.0 -22.8°
Drops below altitude 10° 01:20:10 10° 196° (SSW) 2,452 4.9 -23.8°
Sets 01:22:50 0° 186° (S) 3,382 5.6 -24.4°
